Cross Lake Weather Center

Moon Phase Calendar



Cross Lake Water Level
Online Cameras

 


      

Current Conditions in Blanchard
6/23/2021 4:45:28 PM

91°F
Feels Like 103
Clouds
Humidity
64%
Pressure
30"
Wind
6.9 mph (S)
Dew Point
77°F
UV Index
3/10 (Moderate)
Visibility
6 mi

Hourly Forecast

Date & Time Wed, Jun 23
4:00 PM
Wed, Jun 23
5:00 PM
Wed, Jun 23
6:00 PM
Wed, Jun 23
7:00 PM
Wed, Jun 23
8:00 PM
Wed, Jun 23
9:00 PM
Wed, Jun 23
10:00 PM
Wed, Jun 23
11:00 PM
Thu, Jun 24
12:00 AM
Thu, Jun 24
1:00 AM
Thu, Jun 24
2:00 AM
Thu, Jun 24
3:00 AM
Thu, Jun 24
4:00 AM
Thu, Jun 24
5:00 AM
Thu, Jun 24
6:00 AM
Thu, Jun 24
7:00 AM
Thu, Jun 24
8:00 AM
Thu, Jun 24
9:00 AM
Thu, Jun 24
10:00 AM
Thu, Jun 24
11:00 AM
Thu, Jun 24
12:00 PM
Thu, Jun 24
1:00 PM
Thu, Jun 24
2:00 PM
Thu, Jun 24
3:00 PM
Thu, Jun 24
4:00 PM
Thu, Jun 24
5:00 PM
Thu, Jun 24
6:00 PM
Thu, Jun 24
7:00 PM
Thu, Jun 24
8:00 PM
Thu, Jun 24
9:00 PM
Thu, Jun 24
10:00 PM
Thu, Jun 24
11:00 PM
Fri, Jun 25
12:00 AM
Fri, Jun 25
1:00 AM
Fri, Jun 25
2:00 AM
Fri, Jun 25
3:00 AM
Fri, Jun 25
4:00 AM
Fri, Jun 25
5:00 AM
Fri, Jun 25
6:00 AM
Fri, Jun 25
7:00 AM
Fri, Jun 25
8:00 AM
Fri, Jun 25
9:00 AM
Fri, Jun 25
10:00 AM
Fri, Jun 25
11:00 AM
Fri, Jun 25
12:00 PM
Fri, Jun 25
1:00 PM
Fri, Jun 25
2:00 PM
Fri, Jun 25
3:00 PM
Condition
Clouds

Clouds

Clouds

Clouds

Clouds

Clouds

Clouds

Clouds

Clouds

Clouds

Clouds

Clouds

Clouds

Clouds

Clear

Clear

Clouds

Clouds

Clear

Clear

Clear

Clear

Clouds

Clouds

Clouds

Clouds

Clouds

Clouds

Clouds

Clouds

Clouds

Clear

Clear

Clear

Clouds

Clear

Clear

Clear

Clear

Clear

Clouds

Clouds

Clouds

Clear

Clear

Clear

Clear

Clear
Temperature 90°F91°F90°F89°F86°F83°F80°F80°F79°F78°F77°F76°F75°F75°F74°F75°F79°F83°F86°F89°F92°F94°F95°F92°F91°F93°F92°F89°F85°F83°F82°F81°F80°F78°F77°F77°F76°F76°F75°F76°F79°F82°F86°F89°F91°F93°F95°F96°F
Feels Like 101°F103°F102°F99°F95°F89°F80°F80°F79°F79°F79°F78°F77°F76°F76°F77°F79°F90°F94°F96°F99°F101°F102°F100°F100°F101°F101°F98°F93°F89°F88°F86°F84°F80°F79°F78°F78°F77°F77°F78°F79°F88°F91°F94°F96°F98°F100°F100°F
Cloudiness 78%75%79%83%64%41%22%16%13%11%42%21%14%11%9%9%16%11%7%7%5%5%87%93%94%89%83%77%26%14%11%9%8%7%14%7%5%4%4%6%16%14%12%9%7%6%2%2%
Visibility 6 mi6 mi6 mi6 mi6 mi6 mi6 mi6 mi6 mi6 mi6 mi6 mi6 mi6 mi6 mi6 mi6 mi6 mi6 mi6 mi6 mi6 mi6 mi6 mi6 mi6 mi6 mi6 mi6 mi6 mi6 mi6 mi6 mi6 mi6 mi6 mi6 mi6 mi6 mi6 mi6 mi6 mi6 mi6 mi6 mi6 mi6 mi6 mi
Precipitation 12%12%14%14%23%4%0%0%0%0%0%0%0%0%0%0%0%0%0%0%0%6%9%8%2%2%0%0%0%0%0%0%0%0%18%18%14%12%18%14%0%0%0%0%0%0%0%0%
Humidity 62%64%65%66%70%76%79%79%82%86%87%88%92%95%95%93%83%75%66%58%53%48%45%54%56%50%54%62%68%74%76%76%79%84%89%91%92%94%95%93%84%73%62%55%49%45%41%38%
Dew Point 75°F77°F77°F76°F75°F74°F73°F72°F73°F73°F73°F72°F72°F73°F73°F73°F74°F74°F73°F72°F72°F71°F70°F72°F72°F71°F72°F73°F74°F73°F74°F73°F73°F73°F74°F74°F74°F74°F73°F74°F74°F73°F71°F70°F69°F69°F68°F67°F
Pressure 30"30"30"29.97"29.97"29.97"29.97"29.97"29.97"29.97"29.97"29.97"29.97"29.97"30"30"30.03"30.03"30.03"30"30"29.97"29.94"29.94"29.91"29.91"29.88"29.88"29.88"29.88"29.91"29.91"29.94"29.94"29.91"29.91"29.91"29.94"29.94"29.97"29.97"29.97"29.97"29.97"29.94"29.94"29.91"29.88"
Wind Speed 3.6 mph3.3 mph4.3 mph5.1 mph5.8 mph6.6 mph7.3 mph7.8 mph7.7 mph6.9 mph6.4 mph6.6 mph5 mph4.1 mph3.7 mph3.9 mph6.2 mph6.6 mph6.1 mph6.7 mph7.5 mph6.4 mph6.3 mph6.8 mph6.2 mph6 mph6.8 mph7.1 mph7.2 mph6.9 mph7.1 mph7.5 mph7.4 mph7 mph7.4 mph6.9 mph6.5 mph5.1 mph5.2 mph6.4 mph8.5 mph9.1 mph8.9 mph9 mph8.6 mph8.5 mph8.4 mph8 mph
Wind
Direction
153°
SSE
119°
ESE
112°
ESE
113°
ESE
126°
SE
133°
SE
140°
SE
145°
SE
149°
SSE
151°
SSE
156°
SSE
162°
SSE
168°
SSE
176°
S
176°
S
175°
S
186°
S
193°
SSW
189°
S
187°
S
191°
S
186°
S
189°
S
197°
SSW
208°
SSW
190°
S
172°
S
162°
SSE
153°
SSE
153°
SSE
156°
SSE
161°
SSE
167°
SSE
178°
S
189°
S
196°
SSW
188°
S
188°
S
181°
S
193°
SSW
191°
S
198°
SSW
200°
SSW
198°
SSW
203°
SSW
200°
SSW
199°
SSW
200°
SSW

Daily Forecast

Date High Low Precip. Humidity
Today
Jun 23

Clouds
91 °F
68 °F
23%
57%
Thursday
Jun 24

Clear
95 °F
74 °F
9%
48%
Friday
Jun 25

Clear
97 °F
75 °F
18%
45%
Saturday
Jun 26

Rain
92 °F
75 °F
30%
74%
Sunday
Jun 27

Clear
95 °F
74 °F
13%
43%
Monday
Jun 28

Rain
92 °F
74 °F
57%
42%
Tuesday
Jun 29

Rain
91 °F
72 °F
51%
45%
Wednesday
Jun 30

Rain
93 °F
76 °F
35%
45%
Thursday
Jul 1

Rain
96 °F
78 °F
63%
43%
Friday
Jul 2

Rain
98 °F
74 °F
87%
44%
Saturday
Jul 3

Rain
98 °F
75 °F
31%
41%
Sunday
Jul 4

Clouds
91 °F
74 °F
0%
47%
Monday
Jul 5

Rain
82 °F
74 °F
100%
81%
Tuesday
Jul 6

Rain
75 °F
73 °F
61%
89%
Wednesday
Jul 7

Rain
76 °F
71 °F
82%
93%
Thursday
Jul 8

Rain
96 °F
72 °F
38%
70%

Temperature 8-14 Day Outlook



Precipitation 8-14 Day Outlook




Quick Links
Cross Lake News
Cross Lake Photos
Cross Lake Videos




About Us
Contact Us
Site Map
Search Site
Advertise With Us
   
Cross.LakesOnline.com
THE CROSS LAKE WEBSITE

Copyright 2021, Lakes Online
Privacy    |    Legal